STARLINK-4757 (53824 NORAD) Tracking and Keplerian Element Data

This shows tracking and keplerian element data for the satellite.

Feedback or suggestion? Click here.




ElementValue
Catalog53824
NameSTARLINK-4757
Epoch Orbit1047
Epoch Day325.33334491
Epoch Year2022
RAAN310.8254
Inclination53.2171
Eccentricity0.0001471
Argument of Perigee49.2317
Mean Anonmoly268.0727
Mean Motion15.14242871
Decay Rate-0.01147241
L11 53824U 22114G 22325.33334491 -.01147241 00000+0 -67339-1 0 9996
L22 53824 53.2171 310.8254 0001471 49.2317 268.0727 15.14242871 10474



Live tracking and technical data element details for STARLINK-4757 (NORAD 53824). STARLINK-4757 can be tracked NOW for your location showing map with azimuth and elevation plus other details from your city location.







IsCatalogInMostPopularTable: catalog: 53824, numindb: -1

Insert: records affected: 1


GetName: 53824 STARLINK-4757

Hit Count: inserted at: Thu, 08 Dec 2022 09:57:31 GMT